User: anonymous   Login
Location: Les Chemineaux
(47.3024°N, 1.5104°E)
Time: 21:37:20
(UTC+00:00)
Language:

Cosmos 1934 Rocket - Orbit

View from above orbital plane
View from above orbital plane
View from above satellite
View from above satellite

Ground track
Ground track

The orbit data is extracted from the following two-line orbital elements,

1 18986U 88023B   25193.78575372 -.00000015  00000-0 -29483-4 0  9995
2 18986  82.9538  10.2240 0040722 220.2846 139.5294 13.78890967876515
Epoch (UTC): 12 July 2025 18:51:29
Eccentricity: 0.0040722
inclination: 82.9538°
perigee height: 938 km
apogee height: 998 km
right ascension of ascending node: 10.2240°
argument of perigee: 220.2846°
revolutions per day: 13.78890967
mean anomaly at epoch: 139.5294°
orbit number at epoch: 87651

The dashed part of the orbit path shows where the satellite is in the earth's shadow,  

DLR